Regional Weather Roundup
Issued by NWS

Home | Current Version | Previous Version | Graphics & Text | Print | Product List | Glossary On
Versions: 1 2 3 4 5 6 7 8 9 10 11 12 13 14 15 16 17 18 19 20 21 22 23 24 25 26 27 28 29 30 31 32 33 34 35 36 37 38 39 40 41 42 43 44 45 46 47 48 49 50
000
ASUS43 KLSX 211807
RWRMO
STLRWRMO ALL

WEATHER SUMMARY FOR MISSOURI
NATIONAL WEATHER SERVICE SPRINGFIELD MO
100 PM CDT FRI JUL 21 2017

NOTE: "FAIR" INDICATES FEW OR NO CLOUDS BELOW 12,000 FEET WITH NO
       SIGNIFICANT WEATHER AND/OR OBSTRUCTIONS TO VISIBILITY.
       CURRENT SKY AND/OR WEATHER CONDITIONS ARE NOT AVAILABLE FOR
       CHILLICOTHE AND FARMINGTON.

MOZ001>031-035>038-043-044-053-054-211900-
...NORTHERN AND WESTERN MISSOURI...

CITY           SKY/WX    TMP DP  RH WIND       PRES   REMARKS
KANSAS CTY INT MOSUNNY   94  75  54 S14       29.92F HX 105
6HR MIN TEMP:  79; 6HR MAX TEMP:  94;

KANSAS C DTWN  SUNNY     95  75  52 S14       29.90F HX 107
6HR MIN TEMP:  84; 6HR MAX TEMP:  95;

LEE`S SUMMIT   SUNNY     94  74  52 S17G23    29.94F HX 104
6HR MIN TEMP:  80; 6HR MAX TEMP:  94;

ST JOSEPH      SUNNY     93  79  63 S13       29.87F HX 110
6HR MIN TEMP:  79; 6HR MAX TEMP:  93;

CHILLICOTHE      N/A     91  79  67 S12       29.91F HX 107
6HR MIN TEMP:  78; 6HR MAX TEMP:  92;

KIRKSVILLE     SUNNY     93  77  59 S12       29.94F HX 107
6HR MIN TEMP:  76; 6HR MAX TEMP:  93;


$$
MOZ066>068-077>081-088>096-101>105-211900-
...SOUTHWEST MISSOURI...

CITY           SKY/WX    TMP DP  RH WIND       PRES   REMARKS
SPRINGFIELD    SUNNY     94  72  48 SW8       30.02F HX 102
6HR MIN TEMP:  74; 6HR MAX TEMP:  94;

JOPLIN         SUNNY     96  75  50 S13       30.00F HX 108
6HR MIN TEMP:  79; 6HR MAX TEMP:  96; 6HR PCP: TRACE;

BRANSON        MOSUNNY   91  72  52 W3        30.06F HX  98

$$
MOZ032>034-039>042-045>050-055>058-069>072-211900-
...CENTRAL MISSOURI...

CITY           SKY/WX    TMP DP  RH WIND       PRES   REMARKS
COLUMBIA       SUNNY     96  74  48 SW9       29.98F HX 107
6HR MIN TEMP:  75; 6HR MAX TEMP:  96;

JEFFERSON CITY SUNNY     94  75  54 S9        29.96F HX 105
6HR MIN TEMP:  77; 6HR MAX TEMP:  94;

ROLLA          SUNNY     92  73  53 SW7       30.01F HX 100
6HR MIN TEMP:  75; 6HR MAX TEMP:  92;

SEDALIA        SUNNY     95  77  55 S12       29.98  HX 109
WHITEMAN AFB   SUNNY     94  75  52 SW14      29.95F HX 105
WARRENSBURG    SUNNY     93  72  49 S13       29.95F HX 100
OSAGE BEACH    SUNNY     95  71  45 VRB5      30.00F HX 102

$$
MOZ051-052-059>065-211900-
...EAST CENTRAL MISSOURI...

CITY           SKY/WX    TMP DP  RH WIND       PRES   REMARKS
ST LOUIS INTL  MOSUNNY  101  69  35 W9G17     29.98F HX 107
6HR MIN TEMP:  83; 6HR MAX TEMP: 101;

SPIRIT OF STL  MOSUNNY   97  72  44 SW9       29.96F HX 105
6HR MIN TEMP:  79; 6HR MAX TEMP:  97;

ST CHARLES     SUNNY     97  73  45 SW6       29.96F HX 107
6HR MIN TEMP:  77; 6HR MAX TEMP:  97;


$$
MOZ072>076-082>087-097>100-106>115-211900-
...SOUTH CENTRAL AND SOUTHEAST MISSOURI...

CITY           SKY/WX    TMP DP  RH WIND       PRES   REMARKS
CAPE GIRARDEAU SUNNY     95  74  50 SW7       29.98F HX 105
6HR MIN TEMP:  76; 6HR MAX TEMP:  95;

FARMINGTON     MOSUNNY   96  73  47 S9        30.02F HX 105
6HR MIN TEMP:  76; 6HR MAX TEMP:  96;

POPLAR BLUFF   SUNNY     93  78  61 S9        30.00F HX 108
6HR MIN TEMP:  78; 6HR MAX TEMP:  93;

WEST PLAINS    MOSUNNY   93  72  50 SW6       30.06S HX 101
6HR MIN TEMP:  75; 6HR MAX TEMP:  93;


$$




USA.gov is the U.S. government's official web portal to all federal, state and local government web resources and services.